Flag for Canada Weather past 2 weeks in Glace Bay, Nova Scotia, Canada

Now
66 °F

Broken clouds.


Feels Like: 66 °F
Forecast: 59 / 67 °F
Wind: 8 mph from Northeast

Location: Sydney

Current Time: Aug 23, 2014 at 3:42:55 PM

Latest Report: Aug 23, 2014 at 3:00 PM


Visibility: 15 mi

Pressure: 30.08 "Hg

Humidity: 64%

Dew point: 54 °F

Location of Glace BayLocation

Historic Weather in Glace Bay — Graph

°F

Glace Bay temperature yesterday

Maximum temperature yesterday: 68 °F (at 3:00 PM)
Minimum temperature yesterday: 61 °F (at 8:00 PM)
Average temperature yesterday: 64 °F

Past Weeks' High & Low Weather Summary

 TemperatureHumidityPressure
High77 °F (Aug 16, 3:00 PM)100% (Aug 9, 1:00 AM)30.19 "Hg (Aug 9, 1:00 AM)
Low50 °F (Aug 13, 3:00 AM)54% (Aug 8, 2:00 PM)29.51 "Hg (Aug 19, 4:00 AM)
Average64 °F83%29.95 "Hg
* Reported Aug 8 2:00 PM — Aug 23 2:00 PM, Glace Bay, Weather by CustomWeather, © 2014

Note: Actual official high and low records may vary slightly from our data, if they occured in-between our weather recording intervals... More about our weather records

Advertising

Glace Bay weather history for previous 24 hours

 ConditionsComfort  
Time TempWeatherWind HumidityBarometerVisibility
2:00 PM
Aug 23
64 °FBroken clouds.9 mph73%30.08 "Hg15 mi
1:00 PM63 °FPartly sunny.12 mph77%30.08 "Hg15 mi
12:00 PM61 °FDrizzle. Overcast.9 mph88%30.09 "Hg8 mi
11:00 AM64 °FPartly sunny.8 mph73%30.08 "Hg15 mi
10:00 AM64 °FOvercast.9 mph73%30.08 "Hg15 mi
9:00 AM63 °FOvercast.6 mph88%30.07 "Hg15 mi
8:00 AM59 °FDrizzle. Fog.8 mph94%30.07 "Hg4 mi
7:00 AM59 °FPassing clouds.3 mph100%30.06 "Hg15 mi
6:00 AM59 °FSprinkles. Overcast.6 mph100%30.05 "Hg10 mi
5:51 AM59 °FSprinkles. Mostly cloudy.3 mph100%30.04 "Hg15 mi
5:00 AM59 °FMostly cloudy.3 mph94%30.04 "Hg10 mi
4:45 AM59 °FMostly cloudy.6 mph100%30.04 "Hg10 mi
4:00 AM61 °FRain showers. Passing clouds.3 mph94%30.04 "Hg8 mi
3:54 AM61 °FSprinkles. Low clouds.7 mph94%30.04 "Hg8 mi
3:00 AM61 °FPartly cloudy.12 mph88%30.05 "Hg15 mi
2:00 AM61 °FOvercast.13 mph88%30.06 "Hg15 mi
1:00 AM61 °FPassing clouds.13 mph83%30.07 "Hg15 mi
12:00 AM61 °FPassing clouds.15 mph88%30.08 "Hg15 mi
11:00 PM
Aug 22
61 °FPassing clouds.16 mph88%30.08 "Hg15 mi
10:00 PM63 °FOvercast.14 mph88%30.09 "Hg15 mi
9:00 PM61 °FPassing clouds.10 mph83%30.10 "Hg15 mi
8:00 PM61 °FScattered clouds.14 mph88%30.09 "Hg15 mi
7:00 PM64 °FScattered clouds.12 mph83%30.07 "Hg15 mi
6:00 PM64 °FBroken clouds.12 mph78%30.07 "Hg15 mi
5:00 PM66 °FBroken clouds.12 mph73%30.07 "Hg15 mi
4:00 PM68 °FBroken clouds.16 mph69%30.07 "Hg15 mi
3:00 PM68 °FPartly sunny.13 mph73%30.08 "Hg15 mi
Weather by CustomWeather, © 2014

See weather overviewHow to use our weather pages